Location: Asheville, NC
(35.6000°N, 82.5500°W)
Time: 03:04:17
(UTC-04:00)

KKS-1 - Pass Details

Date: 11 January 2018
Orbit: 637 x 651 km, 98.4° (Epoch: 21 April)

Event Time Altitude Azimuth Distance (km) Brightness Sun altitude
Rises 05:36:05 0° 182° (S) 2,925 ? -24.7°
Reaches altitude 10° 05:38:22 10° 189° (S) 2,018 ? -24.2°
Enters shadow 05:39:35 18° 196° (SSW) 1,571 ? -24.0°
